This demonstration page uses our WeatherBlox Daily Observations layout. Learn more.

Left ArrowRight Arrow

Hourly Observations for July 31, 2021

Temp ( °F °C ) Dew Point ( °F °C ) Humidity (%) Winds ( mph kmh ) Pressure ( in mb ) Visibility ( mi km ) Precip ( " mm )
12:15 am 00:15 Clear 70 21 57 14 64 64 N 7 11 29.99 1016 10 16 N/A
12:35 am 00:35 Clear 68 20 55 13 64 64 NNW 8 13 30.00 1016 10 16 N/A
12:55 am 00:55 Clear 70 21 55 13 60 60 N N/A 30.01 1016 10 16 N/A
1:15 am 01:15 Clear 70 21 55 13 60 60 N N/A 30.01 1016 10 16 N/A
1:35 am 01:35 Clear 70 21 55 13 60 60 N 5 7 30.01 1016 10 16 N/A
1:55 am 01:55 Clear 70 21 55 13 60 60 N 5 7 30.01 1016 10 16 N/A
2:15 am 02:15 Clear 68 20 55 13 64 64 N N/A 30.01 1016 10 16 N/A
2:35 am 02:35 Clear 66 19 57 14 73 73 N N/A 30.02 1017 10 16 N/A
2:55 am 02:55 Clear 68 20 55 13 64 64 N N/A 30.02 1017 10 16 N/A
3:15 am 03:15 Clear 66 19 57 14 73 73 N N/A 30.01 1016 10 16 N/A
3:35 am 03:35 Clear 66 19 55 13 68 68 N N/A 30.01 1016 10 16 N/A
3:55 am 03:55 Clear 64 18 57 14 78 78 N N/A 30.01 1016 10 16 N/A
4:15 am 04:15 Clear 63 17 55 13 77 77 N 3 6 30.02 1016 10 16 N/A
4:35 am 04:35 Clear 63 17 55 13 77 77 N N/A 30.03 1017 10 16 N/A
4:55 am 04:55 Clear 63 17 55 13 77 77 N N/A 30.03 1017 10 16 N/A
5:15 am 05:15 Clear 63 17 55 13 77 77 N 5 7 30.03 1017 10 16 N/A
5:35 am 05:35 Clear 64 18 55 13 73 73 NNE 6 9 30.02 1017 10 16 N/A
5:55 am 05:55 Clear 64 18 55 13 73 73 NNE 5 7 30.03 1017 10 16 N/A
6:15 am 06:15 Partly Cloudy 64 18 55 13 73 73 NNE 6 9 30.04 1017 10 16 N/A
6:35 am 06:35 Mostly Cloudy 64 18 54 12 68 68 NNE 6 9 30.04 1017 10 16 N/A
6:55 am 06:55 Partly Cloudy 64 18 54 12 68 68 NNE 6 9 30.05 1018 10 16 N/A
7:15 am 07:15 Sunny 64 18 54 12 68 68 NNE 6 9 30.05 1018 10 16 N/A
7:35 am 07:35 Partly Cloudy 64 18 55 13 73 73 NE 5 7 30.05 1018 10 16 N/A
7:55 am 07:55 Mostly Cloudy 64 18 54 12 68 68 NNE 7 11 30.06 1018 10 16 N/A
8:15 am 08:15 Cloudy 64 18 55 13 73 73 NNE 3 6 30.06 1018 10 16 N/A
8:35 am 08:35 Partly Cloudy 64 18 55 13 73 73 N N/A 30.06 1018 10 16 N/A
8:55 am 08:55 Mostly Cloudy 64 18 55 13 73 73 N N/A 30.06 1018 10 16 N/A
9:15 am 09:15 Mostly Cloudy 66 19 55 13 68 68 NE 3 6 30.06 1018 10 16 N/A
9:35 am 09:35 Partly Cloudy 68 20 55 13 64 64 ENE 5 7 30.06 1018 10 16 N/A
9:55 am 09:55 Mostly Cloudy 68 20 55 13 64 64 N N/A 30.07 1018 10 16 N/A
10:15 am 10:15 Mostly Cloudy 68 20 55 13 64 64 E 5 7 30.07 1018 10 16 N/A
10:35 am 10:35 Partly Cloudy 68 20 55 13 64 64 N N/A 30.07 1018 10 16 N/A
10:55 am 10:55 Partly Cloudy 68 20 55 13 64 64 ESE 5 7 30.07 1018 10 16 N/A
11:15 am 11:15 Sunny 70 21 57 14 64 64 E 5 7 30.06 1018 10 16 N/A
11:35 am 11:35 Sunny 70 21 57 14 64 64 N N/A 30.05 1018 10 16 N/A
11:55 am 11:55 Sunny 72 22 57 14 61 61 N N/A 30.04 1017 10 16 N/A
12:15 pm 12:15 Sunny 73 23 57 14 57 57 N N/A 30.03 1017 10 16 N/A
12:35 pm 12:35 Sunny 75 24 55 13 50 50 N N/A 30.02 1016 10 16 N/A
12:55 pm 12:55 Sunny 77 25 55 13 47 47 WNW 5 7 30.01 1016 10 16 N/A
1:15 pm 13:15 Sunny 77 25 57 14 51 51 S 5 7 30.00 1016 10 16 N/A
1:35 pm 13:35 Sunny 79 26 57 14 48 48 WSW 5 7 29.99 1016 10 16 N/A
1:55 pm 13:55 Partly Cloudy 79 26 57 14 48 48 SSE 5 7 29.99 1016 10 16 N/A
2:15 pm 14:15 Partly Cloudy 79 26 57 14 48 48 S 3 6 29.98 1015 10 16 N/A
2:35 pm 14:35 Partly Cloudy 81 27 59 15 48 48 WSW 5 7 29.98 1015 10 16 N/A
2:55 pm 14:55 Sunny 81 27 59 15 48 48 W 7 11 29.98 1015 10 16 N/A
3:15 pm 15:15 Sunny 81 27 59 15 48 48 SW 6 9 29.97 1015 10 16 N/A
3:35 pm 15:35 Sunny 81 27 59 15 48 48 WSW 6 9 29.96 1015 10 16 N/A
3:55 pm 15:55 Sunny 81 27 59 15 48 48 WNW 7 11 29.96 1015 10 16 N/A
4:15 pm 16:15 Sunny 81 27 59 15 48 48 SSW 6 9 29.95 1014 10 16 N/A
4:35 pm 16:35 Sunny 81 27 59 15 48 48 SSE 6 9 29.95 1014 10 16 N/A
4:55 pm 16:55 Sunny 81 27 59 15 48 48 SSW 5 7 29.94 1014 10 16 N/A
5:15 pm 17:15 Sunny 81 27 59 15 48 48 N N/A 29.94 1014 10 16 N/A
5:35 pm 17:35 Sunny 81 27 59 15 48 48 SSW 3 6 29.93 1014 10 16 N/A
5:55 pm 17:55 Sunny 81 27 57 14 45 45 N N/A 29.93 1014 10 16 N/A
6:15 pm 18:15 Sunny 81 27 59 15 48 48 N N/A 29.93 1014 10 16 N/A
6:35 pm 18:35 Sunny 81 27 59 15 48 48 WSW 3 6 29.92 1013 10 16 N/A
6:55 pm 18:55 Sunny 79 26 61 16 54 54 WSW 3 6 29.92 1013 10 16 N/A
7:15 pm 19:15 Sunny 79 26 61 16 54 54 WSW 3 6 29.92 1013 10 16 N/A
7:35 pm 19:35 Sunny 79 26 61 16 54 54 SW 3 6 29.92 1013 10 16 N/A
7:55 pm 19:55 Sunny 79 26 63 17 58 58 WSW 3 6 29.92 1013 10 16 N/A
8:15 pm 20:15 Sunny 77 25 63 17 61 61 N N/A 29.91 1013 10 16 N/A
8:35 pm 20:35 Clear 77 25 63 17 61 61 SSW 3 6 29.92 1013 10 16 N/A
8:55 pm 20:55 Clear 75 24 63 17 65 65 SSW 5 7 29.93 1013 10 16 N/A
9:15 pm 21:15 Clear 73 23 63 17 69 69 SSW 6 9 29.94 1014 10 16 N/A
9:35 pm 21:35 Clear 73 23 63 17 69 69 S 5 7 29.94 1014 10 16 N/A
9:55 pm 21:55 Clear 73 23 63 17 69 69 S 6 9 29.94 1014 10 16 N/A
10:15 pm 22:15 Clear 73 23 64 18 74 74 S 7 11 29.95 1014 10 16 N/A
10:35 pm 22:35 Clear 73 23 64 18 74 74 SSW 5 7 29.95 1014 10 16 N/A
10:55 pm 22:55 Clear 72 22 64 18 78 78 SSW 3 6 29.95 1014 10 16 N/A
11:15 pm 23:15 Clear 72 22 64 18 78 78 SSW 5 7 29.95 1014 10 16 N/A
11:35 pm 23:35 Clear 72 22 64 18 78 78 SSW 3 6 29.95 1014 10 16 N/A
11:55 pm 23:55 Clear 72 22 64 18 78 78 SSW 3 6 29.95 1014 10 16 N/A

Powered by AerisWeather